map of UGC home
UGC - Airport
Location
City:  Urgench, Xorazm, Uzbekistan
Name:Urgench International Airport
ICAO:UTNU
IATA:UGC

Details
Type:Airport (Aerodrome, Airfield)
Use:Public/Civil, International (customs port of entry)
Latitude:4135'03"N (41.584272)
Longitude:6038'30"E (60.641708)
Datum:WGS 1984
Elevation:320 ft (98 m)
Variation:6.35E (WMM2015v2 magnetic declination)
0.07 annual change
Runways:1
Longest:11065 × 165 ft (3373 × 50.5 m), paved

Time
Time Zone:UTC+5
Local Time:

Weather
METAR:UTNU 041400Z 32012KT CAVOK 01/M04 Q1027 R31/CLRD70 NOSIG
TAF:UTNU 041100Z 0412/0512 34010G20KT 7000 OVC010
TEMPO 0412/0418 32006KT 3000 BR BKN004 OVC007

Related Locations
Nearby:
Farthest:IPC: 11290 mi / 18170 km
Easter Island (Isla de Pascua, Rapa Nui) [Mataveri Intl], VS, CL

Find:

   beyond  
but within

Other Information
Maps:
NOTAMs:
Links:
Sources:

  
  • flag of Uzbekistan
  

Sectional Chart

Flight Planning
at skyvector.com

Satellite Image

Google Maps Satellite view

 

Copyright © 2004-2019 Karl L. Swartz. All rights reserved.
The Great Circle Mapper name and logo are trademarks of the Great Circle Mapper.
All other trademarks mentioned herein belong to their respective owners.
Please see credits for attibutions and further copyright information.

  Follow gcmap on Facebook Follow gcmap on Twitter GCmap on LinkedIn

hCard Microformat

Geo Microformat